This is the latest recevied weather packets stored in our database for station/object K5OBH. If no packets are shown the sender has not sent any weather packets the latest 1 day(s).
| Time | Temp. | Humidity | Pressure | Rain* | Wind** | Luminosity | Snow |
|---|---|---|---|---|---|---|---|
| 1777993915 | 17.22° C | 86% | 1003.1 hPa | 0 mm | 2.24 m/s, 6° | 41 W/m² | - |
| 1777993611 | 20.56° C | 87% | 1003.1 hPa | 0 mm | 3.13 m/s, 327° | 52 W/m² | - |
| 1777993308 | 20.56° C | 87% | 1002.6 hPa | 0 mm | 0.89 m/s, 359° | 174 W/m² | - |
| 1777993003 | 20.56° C | 87% | 1002.6 hPa | 0 mm | 2.68 m/s, 316° | 188 W/m² | - |
| 1777992702 | 20.56° C | 87% | 1002.3 hPa | 0 mm | 2.68 m/s, 321° | 142 W/m² | - |
| 1777992399 | 21.67° C | 84% | 1002.2 hPa | 0 mm | 1.34 m/s, 332° | 99 W/m² | - |
| 1777992097 | 21.67° C | 81% | 1002.2 hPa | 0 mm | 0.45 m/s, 351° | 152 W/m² | - |
| 1777991794 | 21.67° C | 80% | 1002 hPa | 0 mm | 0 m/s | 138 W/m² | - |
| 1777991491 | 21.67° C | 80% | 1001.7 hPa | 0 mm | 0 m/s | 131 W/m² | - |
| 1777991188 | 21.11° C | 82% | 1001.9 hPa | 0 mm | 0 m/s | 129 W/m² | - |
| 1777990886 | 21.11° C | 81% | 1001.8 hPa | 0 mm | 0.45 m/s, 18° | 115 W/m² | - |
| 1777990583 | 21.67° C | 82% | 1001.7 hPa | 0 mm | 0 m/s | 105 W/m² | - |
| 1777990280 | 21.67° C | 81% | 1001.6 hPa | 0 mm | 0 m/s | 94 W/m² | - |
| 1777989977 | 21.67° C | 81% | 1001.8 hPa | 0 mm | 0.45 m/s, 344° | 92 W/m² | - |
| 1777989674 | 21.11° C | 81% | 1001.7 hPa | 0 mm | 0 m/s | 92 W/m² | - |
| 1777989369 | 21.67° C | 81% | 1001.7 hPa | 0 mm | 0 m/s | 88 W/m² | - |
| 1777989066 | 21.11° C | 82% | 1001.4 hPa | 0 mm | 0.45 m/s, 344° | 94 W/m² | - |
| 1777988762 | 21.11° C | 83% | 1001.6 hPa | 0 mm | 0 m/s | 95 W/m² | - |
| 1777988460 | 21.11° C | 83% | 1001.4 hPa | 0 mm | 0.45 m/s, 53° | 90 W/m² | - |
| 1777988156 | 21.11° C | 83% | 1001.4 hPa | 0 mm | 0 m/s | 89 W/m² | - |
| 1777987852 | 21.11° C | 84% | 1001.5 hPa | 0 mm | 0 m/s | 87 W/m² | - |
| 1777987549 | 20.56° C | 84% | 1001.6 hPa | 0 mm | 0.45 m/s, 346° | 73 W/m² | - |
| 1777987247 | 21.11° C | 84% | 1001.5 hPa | 0 mm | 0.45 m/s, 29° | 77 W/m² | - |
| 1777986943 | 20.56° C | 84% | 1001.8 hPa | 0 mm | 0.45 m/s, 338° | 88 W/m² | - |
| 1777986641 | 20.56° C | 84% | 1001.7 hPa | 0 mm | 0.89 m/s, 350° | 101 W/m² | - |
* Rain latest hour (hover to see other rain measurements)
** Current wind speed in m/s (hover to see current wind gust speed)